| time (UTC) | temp C | wind direction | speed KPH | gust KPH | rain 1hr cm | rain 24hr cm | rain mn cm | humidity % | barometer mb |
| 20260902100039 | 22 | 236 | 3.2 | 8.0 | 0.00 | 0.00 | 0.00 | 63 | 1022.0 |
| 20260902095039 | 21 | 248 | 1.6 | 6.4 | 0.00 | 0.00 | 0.00 | 66 | 1022.1 |
| 20260902094040 | 21 | 248 | 1.6 | 6.4 | 0.00 | 0.00 | 0.00 | 66 | 1022.1 |
| 20260902093040 | 21 | 270 | 1.6 | 6.4 | 0.00 | 0.00 | 0.00 | 69 | 1022.2 |
| 20260902092040 | 20 | 297 | 0.0 | 6.4 | 0.00 | 0.00 | 0.00 | 71 | 1022.3 |
| 20260902091040 | 20 | 297 | 0.0 | 6.4 | 0.00 | 0.00 | 0.00 | 71 | 1022.3 |
| 20260902090040 | 19 | 315 | 0.0 | 6.4 | 0.00 | 0.00 | 0.00 | 73 | 1022.3 |
| 20260902085040 | 18 | 270 | 0.0 | 6.4 | 0.00 | 0.00 | 0.00 | 75 | 1022.2 |
| 20260902084040 | 18 | 270 | 0.0 | 6.4 | 0.00 | 0.00 | 0.00 | 75 | 1022.2 |
| 20260902083040 | 18 | 225 | 1.6 | 4.8 | 0.00 | 0.00 | 0.00 | 76 | 1022.3 |
| 20260902082040 | 17 | 214 | 1.6 | 4.8 | 0.00 | 0.00 | 0.00 | 78 | 1022.2 |
| 20260902081040 | 17 | 214 | 1.6 | 4.8 | 0.00 | 0.00 | 0.00 | 78 | 1022.2 |
| 20260902080040 | 16 | 198 | 1.6 | 4.8 | 0.00 | 0.00 | 0.00 | 80 | 1022.2 |
| 20260902075040 | 16 | 162 | 1.6 | 4.8 | 0.00 | 0.00 | 0.00 | 83 | 1022.2 |
| 20260902074040 | 16 | 162 | 1.6 | 4.8 | 0.00 | 0.00 | 0.00 | 83 | 1022.2 |
| 20260902073039 | 15 | 124 | 1.6 | 6.4 | 0.00 | 0.00 | 0.00 | 86 | 1022.1 |
| 20260902072039 | 14 | 101 | 1.6 | 6.4 | 0.00 | 0.00 | 0.00 | 88 | 1022.1 |
| 20260902071039 | 14 | 101 | 1.6 | 6.4 | 0.00 | 0.00 | 0.00 | 88 | 1022.1 |
| 20260902070039 | 13 | 81 | 1.6 | 6.4 | 0.00 | 0.00 | 0.00 | 90 | 1022.0 |
| 20260902065039 | 12 | 69 | 3.2 | 6.4 | 0.00 | 0.00 | 0.00 | 92 | 1022.0 |
| 20260902064039 | 12 | 69 | 3.2 | 6.4 | 0.00 | 0.00 | 0.00 | 92 | 1022.0 |
| 20260902063038 | 12 | 61 | 3.2 | 6.4 | 0.00 | 0.00 | 0.00 | 94 | 1021.9 |
| 20260902062040 | 11 | 59 | 4.8 | 6.4 | 0.00 | 0.00 | 0.00 | 96 | 1021.8 |
| 20260902061040 | 11 | 59 | 4.8 | 6.4 | 0.00 | 0.00 | 0.00 | 96 | 1021.8 |
| 20260902060040 | 11 | 66 | 4.8 | 6.4 | 0.00 | 0.00 | 0.00 | 97 | 1021.7 |
| 20260902055040 | 11 | 76 | 4.8 | 8.0 | 0.00 | 0.00 | 0.00 | 98 | 1021.5 |
| 20260902054040 | 11 | 76 | 4.8 | 8.0 | 0.00 | 0.00 | 0.00 | 98 | 1021.5 |
| 20260902053040 | 10 | 86 | 4.8 | 8.0 | 0.00 | 0.00 | 0.00 | 99 | 1021.3 |
| 20260902052040 | 10 | 94 | 4.8 | 8.0 | 0.00 | 0.00 | 0.00 | 99 | 1021.2 |
| 20260902051040 | 10 | 94 | 4.8 | 8.0 | 0.00 | 0.00 | 0.00 | 99 | 1021.2 |
| 20260902050039 | 10 | 99 | 4.8 | 6.4 | 0.00 | 0.00 | 0.00 | 100 | 1021.2 |
| 20260902045039 | 10 | 100 | 3.2 | 6.4 | 0.00 | 0.00 | 0.00 | 99 | 1021.5 |
| 20260902044039 | 10 | 100 | 3.2 | 6.4 | 0.00 | 0.00 | 0.00 | 99 | 1021.5 |
| 20260902043039 | 10 | 101 | 3.2 | 4.8 | 0.00 | 0.00 | 0.00 | 99 | 1021.6 |
| 20260902042039 | 11 | 96 | 3.2 | 4.8 | 0.00 | 0.00 | 0.00 | 98 | 1021.6 |
| 20260902041039 | 11 | 96 | 3.2 | 4.8 | 0.00 | 0.00 | 0.00 | 98 | 1021.6 |
| 20260902040039 | 11 | 90 | 3.2 | 4.8 | 0.00 | 0.00 | 0.00 | 97 | 1021.6 |
| 20260902035039 | 11 | 53 | 1.6 | 6.4 | 0.00 | 0.00 | 0.00 | 96 | 1021.5 |
| 20260902034040 | 11 | 53 | 1.6 | 6.4 | 0.00 | 0.00 | 0.00 | 96 | 1021.5 |
| 20260902033040 | 11 | 22 | 1.6 | 6.4 | 0.00 | 0.00 | 0.00 | 95 | 1021.4 |
| 20260902032040 | 12 | 9 | 1.6 | 8.0 | 0.00 | 0.00 | 0.00 | 94 | 1021.4 |
| 20260902031039 | 12 | 9 | 1.6 | 8.0 | 0.00 | 0.00 | 0.00 | 94 | 1021.4 |
| 20260902030039 | 12 | 18 | 1.6 | 8.0 | 0.00 | 0.00 | 0.00 | 94 | 1021.4 |
| 20260902025039 | 12 | 40 | 3.2 | 8.0 | 0.00 | 0.00 | 0.00 | 94 | 1021.4 |
| 20260902024039 | 12 | 40 | 3.2 | 8.0 | 0.00 | 0.00 | 0.00 | 94 | 1021.4 |
| 20260902023039 | 12 | 56 | 3.2 | 8.0 | 0.00 | 0.00 | 0.00 | 94 | 1021.4 |
| 20260902022039 | 12 | 66 | 4.8 | 6.4 | 0.00 | 0.00 | 0.00 | 94 | 1021.4 |
| 20260902021039 | 12 | 66 | 4.8 | 6.4 | 0.00 | 0.00 | 0.00 | 94 | 1021.4 |
| 20260902020039 | 12 | 72 | 4.8 | 6.4 | 0.00 | 0.00 | 0.00 | 94 | 1021.4 |
| 20260902015039 | 12 | 81 | 4.8 | 6.4 | 0.00 | 0.00 | 0.00 | 95 | 1021.3 |
| 20260902014039 | 12 | 81 | 4.8 | 6.4 | 0.00 | 0.00 | 0.00 | 95 | 1021.3 |
| 20260902013039 | 12 | 73 | 3.2 | 6.4 | 0.00 | 0.00 | 0.00 | 94 | 1021.3 |
| 20260902012039 | 12 | 80 | 3.2 | 6.4 | 0.00 | 0.00 | 0.00 | 94 | 1021.3 |
| 20260902011039 | 12 | 80 | 3.2 | 6.4 | 0.00 | 0.00 | 0.00 | 94 | 1021.3 |
| 20260902010039 | 12 | 80 | 3.2 | 6.4 | 0.00 | 0.00 | 0.00 | 93 | 1021.2 |
| 20260902005040 | 13 | 85 | 3.2 | 6.4 | 0.00 | 0.00 | 0.00 | 92 | 1021.2 |
| 20260902004040 | 13 | 85 | 3.2 | 6.4 | 0.00 | 0.00 | 0.00 | 92 | 1021.2 |
| 20260902003040 | 13 | 79 | 3.2 | 4.8 | 0.00 | 0.00 | 0.00 | 91 | 1021.1 |
| 20260902002040 | 13 | 77 | 3.2 | 4.8 | 0.00 | 0.00 | 0.00 | 90 | 1021.1 |
| 20260902001040 | 13 | 77 | 3.2 | 4.8 | 0.00 | 0.00 | 0.00 | 90 | 1021.1 |
| 20260902000040 | 13 | 69 | 3.2 | 4.8 | 0.00 | 0.00 | 0.00 | 88 | 1021.1 |
| 20260901235040 | 14 | 50 | 3.2 | 6.4 | 0.00 | 0.00 | 0.00 | 87 | 1021.2 |
| 20260901234040 | 14 | 50 | 3.2 | 6.4 | 0.00 | 0.00 | 0.00 | 87 | 1021.2 |
| 20260901233040 | 14 | 30 | 3.2 | 6.4 | 0.00 | 0.00 | 0.00 | 85 | 1021.3 |
| 20260901232041 | 15 | 27 | 3.2 | 6.4 | 0.00 | 0.00 | 0.00 | 83 | 1021.3 |
| 20260901231039 | 15 | 27 | 3.2 | 6.4 | 0.00 | 0.00 | 0.00 | 83 | 1021.3 |
| 20260901225039 | 15 | 45 | 3.2 | 8.0 | 0.00 | 0.00 | 0.00 | 80 | 1021.2 |
| 20260901224039 | 15 | 45 | 3.2 | 8.0 | 0.00 | 0.00 | 0.00 | 80 | 1021.2 |
| 20260901223039 | 15 | 65 | 4.8 | 8.0 | 0.00 | 0.00 | 0.00 | 79 | 1020.8 |
| 20260901221040 | 15 | 70 | 4.8 | 8.0 | 0.00 | 0.00 | 0.00 | 77 | 1020.8 |
| 20260901220040 | 16 | 75 | 4.8 | 8.0 | 0.00 | 0.00 | 0.00 | 76 | 1020.8 |
| 20260901215040 | 16 | 83 | 6.4 | 8.0 | 0.00 | 0.00 | 0.00 | 75 | 1020.7 |
| 20260901214040 | 16 | 83 | 6.4 | 8.0 | 0.00 | 0.00 | 0.00 | 75 | 1020.7 |
| 20260901213040 | 16 | 86 | 6.4 | 9.7 | 0.00 | 0.00 | 0.00 | 73 | 1020.7 |
| 20260901212039 | 16 | 90 | 6.4 | 9.7 | 0.00 | 0.00 | 0.00 | 72 | 1020.7 |
| 20260901211039 | 16 | 90 | 6.4 | 9.7 | 0.00 | 0.00 | 0.00 | 72 | 1020.7 |
| 20260901210039 | 17 | 90 | 6.4 | 9.7 | 0.00 | 0.00 | 0.00 | 71 | 1020.7 |
| 20260901205039 | 17 | 90 | 4.8 | 9.7 | 0.00 | 0.00 | 0.00 | 69 | 1020.7 |
| 20260901204039 | 17 | 90 | 4.8 | 9.7 | 0.00 | 0.00 | 0.00 | 69 | 1020.7 |
| 20260901203039 | 17 | 86 | 4.8 | 9.7 | 0.00 | 0.00 | 0.00 | 68 | 1020.6 |
| 20260901202038 | 18 | 86 | 4.8 | 9.7 | 0.00 | 0.00 | 0.00 | 66 | 1020.6 |
| 20260901201038 | 18 | 86 | 4.8 | 9.7 | 0.00 | 0.00 | 0.00 | 66 | 1020.6 |
| 20260901200038 | 18 | 86 | 4.8 | 9.7 | 0.00 | 0.00 | 0.00 | 65 | 1020.6 |
| 20260901195730 | 18 | 86 | 4.8 | 9.7 | 0.00 | 0.00 | 0.00 | 65 | 1020.6 |
| 20260901194730 | 18 | 90 | 4.8 | 9.7 | 0.00 | 0.00 | 0.00 | 63 | 1020.5 |
| 20260901193729 | 19 | 86 | 4.8 | 8.0 | 0.00 | 0.00 | 0.00 | 61 | 1020.6 |
| 20260901192730 | 20 | 86 | 4.8 | 8.0 | 0.00 | 0.00 | 0.00 | 61 | 1020.4 |
| 20260901191730 | 20 | 86 | 4.8 | 8.0 | 0.00 | 0.00 | 0.00 | 59 | 1020.3 |
| 20260901190730 | 20 | 86 | 4.8 | 8.0 | 0.00 | 0.00 | 0.00 | 59 | 1020.3 |
| 20260901185730 | 21 | 75 | 4.8 | 6.4 | 0.00 | 0.00 | 0.00 | 56 | 1020.1 |
| 20260901184730 | 22 | 58 | 3.2 | 6.4 | 0.00 | 0.00 | 0.00 | 53 | 1019.9 |
| 20260901183730 | 22 | 58 | 3.2 | 6.4 | 0.00 | 0.00 | 0.00 | 53 | 1019.9 |
| 20260901181729 | 23 | 21 | 3.2 | 4.8 | 0.00 | 0.00 | 0.00 | 47 | 1019.6 |
| 20260901180729 | 23 | 21 | 3.2 | 4.8 | 0.00 | 0.00 | 0.00 | 47 | 1019.6 |
| 20260901175729 | 24 | 8 | 3.2 | 3.2 | 0.00 | 0.00 | 0.00 | 45 | 1019.5 |
| 20260901174729 | 24 | 0 | 1.6 | 3.2 | 0.00 | 0.00 | 0.00 | 43 | 1019.5 |
| 20260901173729 | 24 | 0 | 1.6 | 3.2 | 0.00 | 0.00 | 0.00 | 43 | 1019.5 |
| 20260901171729 | 25 | 315 | 1.6 | 3.2 | 0.00 | 0.00 | 0.00 | 40 | 1019.5 |
| 20260901170729 | 25 | 315 | 1.6 | 3.2 | 0.00 | 0.00 | 0.00 | 40 | 1019.5 |
| 20260901165730 | 25 | 288 | 1.6 | 3.2 | 0.00 | 0.00 | 0.00 | 39 | 1019.5 |
| 20260901164730 | 25 | 256 | 1.6 | 4.8 | 0.00 | 0.00 | 0.00 | 39 | 1019.5 |
| 20260901163730 | 25 | 79 | 4.8 | 8.0 | 0.00 | 0.00 | 0.00 | 39 | 1019.5 |
| 20260901162730 | 25 | 82 | 4.8 | 8.0 | 0.00 | 0.00 | 0.00 | 36 | 1019.8 |
| 20260901161730 | 25 | 86 | 4.8 | 8.0 | 0.00 | 0.00 | 0.00 | 36 | 1019.9 |
| 20260901160730 | 25 | 86 | 4.8 | 8.0 | 0.00 | 0.00 | 0.00 | 36 | 1019.9 |
| 20260901155730 | 26 | 85 | 3.2 | 8.0 | 0.00 | 0.00 | 0.00 | 36 | 1020.0 |
| 20260901154729 | 26 | 72 | 3.2 | 8.0 | 0.00 | 0.00 | 0.00 | 36 | 1020.0 |
| 20260901153729 | 26 | 72 | 3.2 | 8.0 | 0.00 | 0.00 | 0.00 | 36 | 1020.0 |
| 20260901152729 | 26 | 60 | 3.2 | 8.0 | 0.00 | 0.00 | 0.00 | 36 | 1020.1 |
| 20260901151729 | 26 | 45 | 3.2 | 8.0 | 0.00 | 0.00 | 0.00 | 36 | 1020.2 |
| 20260901150729 | 26 | 45 | 3.2 | 8.0 | 0.00 | 0.00 | 0.00 | 36 | 1020.2 |
| 20260901145729 | 26 | 40 | 3.2 | 8.0 | 0.00 | 0.00 | 0.00 | 36 | 1020.3 |
| 20260901144729 | 26 | 40 | 3.2 | 9.7 | 0.00 | 0.00 | 0.00 | 36 | 1020.5 |
| 20260901143730 | 26 | 40 | 3.2 | 9.7 | 0.00 | 0.00 | 0.00 | 36 | 1020.5 |
| 20260901142730 | 26 | 36 | 3.2 | 9.7 | 0.00 | 0.00 | 0.00 | 36 | 1020.6 |
| 20260901141729 | 26 | 23 | 3.2 | 9.7 | 0.00 | 0.00 | 0.00 | 36 | 1020.7 |
| 20260901140731 | 26 | 23 | 3.2 | 9.7 | 0.00 | 0.00 | 0.00 | 36 | 1020.7 |
| 20260901135729 | 25 | 337 | 3.2 | 9.7 | 0.00 | 0.00 | 0.00 | 37 | 1020.7 |
| 20260901134730 | 25 | 302 | 4.8 | 9.7 | 0.00 | 0.00 | 0.00 | 38 | 1020.7 |
| 20260901133730 | 25 | 324 | 3.2 | 11.3 | 0.00 | 0.00 | 0.00 | 37 | 1020.9 |
| 20260901130730 | 25 | 108 | 1.6 | 9.7 | 0.00 | 0.00 | 0.00 | 38 | 1021.0 |
| 20260901125729 | 25 | 90 | 1.6 | 9.7 | 0.00 | 0.00 | 0.00 | 39 | 1021.1 |
| 20260901124730 | 25 | 346 | 1.6 | 9.7 | 0.00 | 0.00 | 0.00 | 39 | 1021.2 |
| 20260901123731 | 25 | 346 | 1.6 | 9.7 | 0.00 | 0.00 | 0.00 | 39 | 1021.2 |
| 20260901121730 | 25 | 320 | 4.8 | 9.7 | 0.00 | 0.00 | 0.00 | 41 | 1021.5 |
| 20260901120730 | 25 | 320 | 4.8 | 9.7 | 0.00 | 0.00 | 0.00 | 41 | 1021.5 |
| 20260901115730 | 24 | 312 | 4.8 | 9.7 | 0.00 | 0.00 | 0.00 | 42 | 1021.6 |
| 20260901114730 | 24 | 299 | 4.8 | 9.7 | 0.00 | 0.00 | 0.00 | 43 | 1021.8 |
| 20260901113729 | 24 | 299 | 4.8 | 9.7 | 0.00 | 0.00 | 0.00 | 43 | 1021.8 |
| 20260901112729 | 24 | 281 | 3.2 | 9.7 | 0.00 | 0.00 | 0.00 | 44 | 1021.9 |
| 20260901111729 | 23 | 264 | 3.2 | 8.0 | 0.00 | 0.00 | 0.00 | 45 | 1022.0 |
| 20260901105729 | 23 | 256 | 3.2 | 8.0 | 0.00 | 0.00 | 0.00 | 47 | 1022.1 |
| 20260901104729 | 23 | 252 | 1.6 | 6.4 | 0.00 | 0.00 | 0.00 | 50 | 1022.2 |
| 20260901101729 | 22 | 270 | 1.6 | 6.4 | 0.00 | 0.00 | 0.00 | 57 | 1022.6 |
| 20260901100728 | 22 | 270 | 1.6 | 6.4 | 0.00 | 0.00 | 0.00 | 57 | 1022.6 |